"Pseudo-MPEC" for A10kXRw

Created 2020 Mar 31 10:07:03 UT using Find_Orb

Click here for an explanation of pseudo-MPECs

 
 Astrometry: 
     A10kXRw  C2020 03 19.59220714 47 12.57 -21 59 15.3    ~3JGM 19.22oVNEOCPT08
     A10kXRw  C2020 03 19.59543014 47 19.48 -21 59 53.0    ~3JGM 19.26oVNEOCPT08
     A10kXRw  C2020 03 19.60520914 47 41.10 -22 01 52.0    ~3JGM 19.24oVNEOCPT08
     A10kXRw  C2020 03 19.61686614 48 06.55 -22 04 13.0    ~3JGM 19.37oVNEOCPT08
     A10kXRw KC2020 03 20pth(=Yc8]by=pAstrometrysW4NJ23_2)5'cFCa=)redacted;y4K93
     A10kXRw KC2020 03 20cb?h=^7tM@x_-]K6LST)SQDJnNI\k1b01Q)click(it:!U!8'l?ZK93
     A10kXRw KC2020 03 203QF7yN`[?rw*](3fr-hhCx#6%IU9IWWS,$h%Pf/hnvT@^vc`ta=0K93
     A10kXRw KC2020 03 20@g?Y6v9k-Wxm6gs@S\.here!3Bqm+WAltQ2;pERF^wSpu!`btZo0K93
     A10kXRw KC2020 03 20CqC_9n,x%MDforXVoNUGN9x\cN]Ij1*`uMWsfJgMexplanationmL01
     A10kXRw KC2020 03 20FGYVa1j$pLhDck5NOuIV,Bw0dJ21$2X]hNyyli#coEa27v`fKcC1L01
     A10kXRw KC2020 03 20`@uJDa[Hsm`aA_`h(+QcF=C#AH@Z8UP\qe^j2DR.]lP?d[pN'3($L01
     A10kXRw KC2020 03 20j#'1Aak3pvogaT2NRd\602UuG#(m_-8c4#*OnyjgA,uSZ(q'(MVOL01
     A10kXRw KC2020 03 20S3WGs9\,@508i!0aU=A]47Uo?)Ln69%72xPn^l5tWMc2-Ms=j:TXL01

Station data:
(K93) Sutherland-LCOGT C  (S32.380670 E20.810110)  South Africa.  Observer R.
   Miles. 1.0-m f/8.0 Ritchey-Chrétien + CCD.
(L01) Višnjan Observatory, Tičan  (N45.290900 E13.749300)  Croatia.
   Observers K. Korlević, E. Pettarin. Measurer E. Pettarin. 1.0-m f/2.9
   reflector + CCD.
(T08) ATLAS-MLO, Mauna Loa  (N19.536152 W155.576050)  US/Hawaii.  Observers
   L. Denneau, A. Heinze, H. Weiland, J. Tonry, H. Flewelling, A.
   Fitzsimmons, D. Young, B. Stalder. Measurers L. Denneau, A. Heinze, J.
   Tonry. 0.5-m f/2.0 Schmidt + CCD.

Orbital elements:  A10kXRw
   Perihelion 2020 May 1.420850 +/- 0.181 TT = 10:06:01 (JD 2458970.920850)
Epoch 2020 Mar 20.0 TT = JDT 2458928.5   Earth MOID: 0.0012   Ve: 0.0978
M 347.00122375 +/- 0.15             Ma: 0.0460                AutoNEOCP
n   0.30642423 +/- 0.00261          Peri.  289.23280 +/- 1.7
a   2.17898368 +/- 0.0124           Node   313.47807 +/- 1.3
e   0.6228425 +/- 0.00174           Incl.    0.35008 +/- 0.007
P   3.22                   H 24.0   G  0.15   U  8.7  
q 0.82181988 +/- 0.00208    Q 3.53614748 +/- 0.0235
From 13 observations 2020 Mar. 19-20 (12.3 hr); mean residual 0".60
Residuals in arcseconds: 
200319 T08  1.3+  .70-    200320 K93  .16+  .01-    200320 L01  .02-  .01-    
200319 T08  .83-  .67+    200320 K93  .16+  .00     200320 L01  .25+  .25-    
200319 T08  1.3+  .07+    200320 K93  .22+  .13-    200320 L01  .24-  .10-    
200319 T08  1.8-  .02-    200320 L01  .43-  .51+    
200320 K93  .21+  .12-    200320 L01  .27-  .12+    

Ephemerides (geocentric):
Date (UTC) HH   RA              Dec         delta   r     elong  mag " sig PA
---- -- -- --  -------------   -----------  ------ ------ -----  --- ---- ---
2020 03 31 10  21 46 06.137   -16 46 06.06  .09258 .93949  47.8 24??  175  64
2020 03 31 11  21 46 30.410   -16 43 20.96  .09292 .93920  47.8 24??  175  64
2020 03 31 12  21 46 54.503   -16 40 36.84  .09327 .93891  47.7 24??  175  64
2020 03 31 13  21 47 18.416   -16 37 53.70  .09362 .93863  47.6 24??  175  64
2020 03 31 14  21 47 42.153   -16 35 11.54  .09396 .93834  47.6 24??  175  64
2020 03 31 15  21 48 05.714   -16 32 30.34  .09431 .93806  47.5 24??  175  64
2020 03 31 16  21 48 29.103   -16 29 50.09  .09466 .93778  47.5 24??  175  64
2020 03 31 17  21 48 52.320   -16 27 10.80  .09501 .93749  47.4 24??  175  64
2020 03 31 18  21 49 15.367   -16 24 32.44  .09536 .93721  47.3 24??  174  64
2020 03 31 19  21 49 38.247   -16 21 55.02  .09571 .93692  47.3 24??  174  64
2020 03 31 20  21 50 00.962   -16 19 18.53  .09605 .93664  47.2 24??  174  64
2020 03 31 21  21 50 23.513   -16 16 42.96  .09640 .93636  47.2 24??  174  64
2020 03 31 22  21 50 45.902   -16 14 08.30  .09675 .93607  47.1 24??  174  64
2020 03 31 23  21 51 08.130   -16 11 34.54  .09710 .93579  47.0 24??  174  64
2020 04 01 00  21 51 30.200   -16 09 01.68  .09745 .93551  47.0 24??  174  64
2020 04 01 01  21 51 52.114   -16 06 29.71  .09780 .93523  46.9 24??  174  64
2020 04 01 02  21 52 13.872   -16 03 58.62  .09816 .93495  46.9 24??  174  64
2020 04 01 03  21 52 35.477   -16 01 28.41  .09851 .93466  46.8 24??  174  64
2020 04 01 04  21 52 56.930   -15 58 59.07  .09886 .93438  46.8 24??  174  64
2020 04 01 05  21 53 18.233   -15 56 30.59  .09921 .93410  46.7 24??  174  64
2020 04 01 06  21 53 39.388   -15 54 02.97  .09956 .93382  46.7 24??  174  64
2020 04 01 07  21 54 00.396   -15 51 36.19  .09991 .93354  46.6 24??  174  64
2020 04 01 08  21 54 21.259   -15 49 10.25  .10027 .93326  46.6 24??  174  64
2020 04 01 09  21 54 41.978   -15 46 45.15  .10062 .93298  46.5 24??  174  64
2020 04 01 10  21 55 02.555   -15 44 20.88  .10097 .93270  46.4 24??  174  64
2020 04 01 11  21 55 22.991   -15 41 57.43  .10133 .93242  46.4 24??  174  64
2020 04 01 12  21 55 43.288   -15 39 34.79  .10168 .93214  46.4 24??  173  64
2020 04 01 13  21 56 03.447   -15 37 12.96  .10204 .93186  46.3 24??  173  64
2020 04 01 14  21 56 23.470   -15 34 51.93  .10239 .93158  46.3 24??  173  64
2020 04 01 15  21 56 43.358   -15 32 31.69  .10274 .93130  46.2 24??  173  64
2020 04 01 16  21 57 03.113   -15 30 12.25  .10310 .93103  46.2 24??  173  63
2020 04 01 17  21 57 22.736   -15 27 53.58  .10345 .93075  46.1 24??  173  63
2020 04 01 18  21 57 42.228   -15 25 35.69  .10381 .93047  46.1 24??  173  63
2020 04 01 19  21 58 01.591   -15 23 18.58  .10417 .93019  46.0 24??  173  63
2020 04 01 20  21 58 20.826   -15 21 02.22  .10452 .92991  46.0 24??  173  63
2020 04 01 21  21 58 39.934   -15 18 46.62  .10488 .92964  45.9 24??  173  63
2020 04 01 22  21 58 58.918   -15 16 31.77  .10523 .92936  45.9 24??  173  63
2020 04 01 23  21 59 17.777   -15 14 17.67  .10559 .92908  45.8 24??  173  63
2020 04 02 00  21 59 36.514   -15 12 04.30  .10595 .92881  45.8 24??  173  63
2020 04 02 01  21 59 55.129   -15 09 51.67  .10630 .92853  45.8 24??  173  63
2020 04 02 02  22 00 13.624   -15 07 39.77  .10666 .92826  45.7 24??  173  63
2020 04 02 03  22 00 32.000   -15 05 28.58  .10702 .92798  45.7 24??  173  63
2020 04 02 04  22 00 50.259   -15 03 18.11  .10738 .92771  45.6 24??  173  63
2020 04 02 05  22 01 08.401   -15 01 08.35  .10774 .92743  45.6 24??  172  63
2020 04 02 06  22 01 26.428   -14 58 59.30  .10809 .92716  45.6 24??  172  63
2020 04 02 07  22 01 44.340   -14 56 50.94  .10845 .92688  45.5 24??  172  63
2020 04 02 08  22 02 02.140   -14 54 43.27  .10881 .92661  45.5 24??  172  63
2020 04 02 09  22 02 19.828   -14 52 36.29  .10917 .92633  45.4 24??  172  63